JST535 YMAV-YMML

Flight info

Callsign JST535
Flight time 0h 12m
Altitude 9000
Route AV W190 ML
Aircraft A320/M-SDE3FGHIRWY/LB1

Departure

Time 2026-04-15 09:20
Airport Melbourne Avalon International Airport (YMAV)

Arrival

Time 2026-04-15 09:33
Airport Melbourne Airport (YMML)
Time Latitude Longitude Altitude Speed Heading
2026-04-15 09:02 -38.02731 144.47368 36 ft 0 kts
2026-04-15 09:11 -38.02732 144.47368 36 ft 2 kts
2026-04-15 09:11 -38.02758 144.47364 34 ft 4 kts
2026-04-15 09:11 -38.02783 144.47361 34 ft 4 kts 344°
2026-04-15 09:12 -38.02800 144.47378 36 ft 4 kts 286°
2026-04-15 09:12 -38.02804 144.47398 36 ft 0 kts 276°
2026-04-15 09:18 -38.02803 144.47390 36 ft 4 kts 276°
2026-04-15 09:19 -38.02794 144.47294 36 ft 16 kts 276°
2026-04-15 09:19 -38.02779 144.47176 36 ft 6 kts 290°
2026-04-15 09:19 -38.02749 144.47109 34 ft 11 kts 292°
2026-04-15 09:19 -38.02734 144.46985 34 ft 17 kts 268°
2026-04-15 09:20 -38.02811 144.46924 33 ft 16 kts 188°
2026-04-15 09:20 -38.03157 144.46866 36 ft 93 kts 187°
2026-04-15 09:20 -38.04034 144.46727 60 ft 155 kts 186°
2026-04-15 09:20 -38.05116 144.46554 893 ft 156 kts 188°
2026-04-15 09:21 -38.06181 144.46374 1817 ft 155 kts 193°
2026-04-15 09:21 -38.07306 144.46231 2410 ft 176 kts 181°
2026-04-15 09:21 -38.08491 144.46953 2869 ft 210 kts 134°
2026-04-15 09:21 -38.09052 144.48752 3405 ft 234 kts 87°
2026-04-15 09:22 -38.08511 144.50673 4351 ft 237 kts 46°
2026-04-15 09:22 -38.07209 144.51916 4817 ft 233 kts 20°
2026-04-15 09:22 -38.05709 144.52606 4972 ft 229 kts 11°
2026-04-15 09:22 -38.04032 144.53159 5006 ft 264 kts
2026-04-15 09:23 -38.02234 144.53744 5002 ft 268 kts 11°
2026-04-15 09:23 -38.00436 144.54386 5008 ft 268 kts 13°
2026-04-15 09:23 -37.98661 144.55070 5010 ft 267 kts 13°
2026-04-15 09:23 -37.96881 144.55795 5010 ft 268 kts 14°
2026-04-15 09:24 -37.95132 144.56529 4999 ft 269 kts 14°
2026-04-15 09:24 -37.93395 144.57417 5004 ft 272 kts 25°
2026-04-15 09:24 -37.91838 144.58793 5005 ft 274 kts 35°
2026-04-15 09:24 -37.90337 144.60288 5004 ft 274 kts 34°
2026-04-15 09:25 -37.88834 144.61776 5003 ft 274 kts 34°
2026-04-15 09:25 -37.87333 144.63255 5001 ft 274 kts 34°
2026-04-15 09:25 -37.85823 144.64741 5000 ft 274 kts 35°
2026-04-15 09:25 -37.84320 144.66225 5005 ft 274 kts 35°
2026-04-15 09:26 -37.82829 144.67695 5005 ft 265 kts 35°
2026-04-15 09:26 -37.81416 144.69088 5007 ft 250 kts 34°
2026-04-15 09:26 -37.80087 144.70395 5008 ft 235 kts 34°
2026-04-15 09:26 -37.78811 144.71649 5009 ft 231 kts 34°
2026-04-15 09:27 -37.77542 144.72888 4988 ft 230 kts 34°
2026-04-15 09:27 -37.76268 144.74097 4695 ft 228 kts 33°
2026-04-15 09:27 -37.74993 144.75291 4390 ft 228 kts 33°
2026-04-15 09:27 -37.73724 144.76477 4105 ft 226 kts 32°
2026-04-15 09:28 -37.72461 144.77659 3801 ft 226 kts 33°
2026-04-15 09:28 -37.71176 144.78860 3257 ft 231 kts 34°
2026-04-15 09:28 -37.69874 144.79991 2629 ft 223 kts 26°
2026-04-15 09:28 -37.68452 144.80582 2137 ft 207 kts
2026-04-15 09:29 -37.67102 144.80485 1911 ft 187 kts 352°
2026-04-15 09:29 -37.65840 144.80284 1872 ft 179 kts 352°
2026-04-15 09:29 -37.64616 144.80072 1910 ft 176 kts 351°
2026-04-15 09:29 -37.63412 144.79853 1883 ft 174 kts 351°
2026-04-15 09:30 -37.62208 144.79635 1887 ft 173 kts 351°
2026-04-15 09:30 -37.61007 144.79520 1892 ft 174 kts
2026-04-15 09:30 -37.60281 144.79922 1889 ft 175 kts 43°
2026-04-15 09:30 -37.59862 144.81784 1779 ft 170 kts 108°
2026-04-15 09:31 -37.60276 144.82577 1698 ft 162 kts 142°
2026-04-15 09:31 -37.61295 144.82934 1463 ft 150 kts 181°
2026-04-15 09:31 -37.62328 144.82926 1135 ft 148 kts 178°
2026-04-15 09:31 -37.63633 144.83183 831 ft 139 kts 173°
2026-04-15 09:32 -37.64574 144.83348 636 ft 135 kts 174°
2026-04-15 09:32 -37.65197 144.83467 519 ft 133 kts 173°
2026-04-15 09:32 -37.66094 144.83634 416 ft 120 kts 172°
2026-04-15 09:32 -37.66735 144.83753 392 ft 71 kts 172°
2026-04-15 09:33 -37.67048 144.83864 384 ft 30 kts 143°
2026-04-15 09:33 -37.67137 144.83951 381 ft 12 kts 136°
2026-04-15 09:33 -37.67219 144.84041 379 ft 19 kts 148°
2026-04-15 09:33 -37.67362 144.84090 375 ft 25 kts 172°
2026-04-15 09:34 -37.67493 144.84142 372 ft 16 kts 116°
2026-04-15 09:34 -37.67491 144.84266 374 ft 14 kts 83°
2026-04-15 09:34 -37.67475 144.84401 377 ft 16 kts 82°
2026-04-15 09:34 -37.67469 144.84453 378 ft 1 kts 82°
2026-04-15 09:35 -37.67467 144.84465 378 ft 1 kts 82°
2026-04-15 09:35 -37.67466 144.84479 378 ft 1 kts 82°
2026-04-15 09:35 -37.67466 144.84480 378 ft 0 kts 82°
2026-04-15 09:38 -37.67466 144.84482 379 ft 1 kts 82°
2026-04-15 09:38 -37.67463 144.84506 379 ft 4 kts 82°
2026-04-15 09:38 -37.67460 144.84532 379 ft 0 kts 82°
2026-04-15 09:39 -37.67458 144.84549 380 ft 0 kts 82°
2026-04-15 09:41 -37.67458 144.84550 380 ft 1 kts 82°
2026-04-15 09:41 -37.67458 144.84556 380 ft 0 kts 82°
2026-04-15 09:43 -37.67458 144.84557 380 ft 1 kts 84°
2026-04-15 09:44 -37.67479 144.84556 379 ft 8 kts 192°
2026-04-15 09:44 -37.67568 144.84555 376 ft 19 kts 169°
2026-04-15 09:44 -37.67740 144.84585 370 ft 30 kts 171°
2026-04-15 09:44 -37.67926 144.84621 361 ft 8 kts 172°
2026-04-15 09:45 -37.67929 144.84621 361 ft 0 kts 172°
2026-04-15 09:48 -37.67939 144.84623 365 ft 5 kts 172°
2026-04-15 09:48 -37.67943 144.84624 360 ft 0 kts 172°
2026-04-15 09:49 -37.67945 144.84624 365 ft 2 kts 172°
2026-04-15 09:49 -37.67966 144.84628 363 ft 0 kts 172°
2026-04-15 09:50 -37.67967 144.84628 359 ft 2 kts 172°
2026-04-15 09:50 -37.67979 144.84630 359 ft 0 kts 172°
2026-04-15 09:52 -37.68007 144.84635 364 ft 0 kts 172°
2026-04-15 09:53 -37.68021 144.84638 357 ft 0 kts 172°
2026-04-15 09:53 -37.68036 144.84641 358 ft 0 kts 172°
2026-04-15 09:57 -37.68053 144.84644 361 ft 1 kts 172°
2026-04-15 10:00 -37.68071 144.84647 364 ft 0 kts 172°
2026-04-15 10:03 -37.68082 144.84649 360 ft 3 kts 172°
2026-04-15 10:03 -37.68116 144.84654 358 ft 4 kts 173°
2026-04-15 10:03 -37.68147 144.84660 359 ft 6 kts 173°
2026-04-15 10:04 -37.68164 144.84662 352 ft 0 kts 173°
2026-04-15 10:08 -37.68174 144.84664 356 ft 2 kts 174°
2026-04-15 10:09 -37.68192 144.84666 360 ft 4 kts 173°
2026-04-15 10:09 -37.68223 144.84673 359 ft 5 kts 170°
2026-04-15 10:09 -37.68245 144.84678 350 ft 0 kts 170°
2026-04-15 10:10 -37.68248 144.84678 356 ft 2 kts 170°
2026-04-15 10:10 -37.68251 144.84679 350 ft 0 kts 170°
2026-04-15 10:11 -37.68252 144.84679 350 ft 1 kts 170°
2026-04-15 10:11 -37.68266 144.84682 355 ft 0 kts 170°
2026-04-15 10:12 -37.68268 144.84682 349 ft 0 kts 170°
2026-04-15 10:13 -37.68277 144.84684 356 ft 5 kts 170°
2026-04-15 10:13 -37.68281 144.84684 349 ft 0 kts 170°
2026-04-15 10:14 -37.68282 144.84685 349 ft 0 kts 170°
2026-04-15 10:15 -37.68310 144.84687 350 ft 8 kts 183°
2026-04-15 10:15 -37.68377 144.84636 353 ft 14 kts 236°
2026-04-15 10:15 -37.68361 144.84504 353 ft 18 kts 316°
2026-04-15 10:15 -37.68232 144.84460 352 ft 21 kts 352°
2026-04-15 10:16 -37.68078 144.84431 360 ft 24 kts 352°
2026-04-15 10:16 -37.67910 144.84401 360 ft 20 kts 351°
2026-04-15 10:16 -37.67831 144.84466 364 ft 15 kts 77°
2026-04-15 10:16 -37.67790 144.84589 369 ft 15 kts 25°
2026-04-15 10:17 -37.67689 144.84578 372 ft 15 kts 350°
2026-04-15 10:17 -37.67590 144.84559 376 ft 14 kts 352°
2026-04-15 10:17 -37.67503 144.84547 378 ft 10 kts
2026-04-15 10:17 -37.67455 144.84597 380 ft 9 kts 67°
2026-04-15 10:18 -37.67442 144.84683 382 ft 10 kts 82°
2026-04-15 10:18 -37.67477 144.84733 381 ft 11 kts 172°
2026-04-15 10:18 -37.67520 144.84741 380 ft 1 kts 172°
2026-04-15 10:18 -37.67525 144.84742 380 ft 0 kts 172°